CZ-6A DEB, 55529

Orbit data source: Space-Track

CZ-6A DEB, 55529 is space debris in SSO originally from a launch on Fri, 11 Nov 2022 UTC launched from the Taiyaun Space Center, China (TSC). Debris objects in space refer to the collection of defunct objects orbiting the Earth. Examples of debris include non-operational satellites, rocket bodies, and fragments generated from explosions, collisions, or faulty payload assembly.

Loading next visibility...
Identifier
55529, 2022-151YB
Orbit
SSO
Country
Flag of CNCN / PRC
Related business
Manufacturer
SAST
Mission
Spacecraft
Bus & Motor
Unknown
Mass
Unknown
Launch date (UTC)
2022-11-11 (3 years ago)
Launch vehicle
Unknown
Launch site
Taiyaun Space Center, China (TSC)
Object type
Payload
Rocket body
Debris
Shape & HBR
Unknown shape, 0.1 m
Radar Cross Section
Small (<0.1 m²)

Expand to show TLE details & history
Last TLE update: 11 hours ago

TLE from 11 hours ago
0 CZ-6A DEB
1 55529U 22151YB  26130.43937750  .00004190  00000-0  83693-3 0  9993
2 55529  98.6175 186.2811 0088938  66.7619 294.2914 14.59977872178974
Epoch: 2026-05-10T10:32Z
TLE epoch observation values (Epoch: 2026-05-10T10:32:42.216Z)
Latitude
0.00001°
Longitude
159.86276°
Altitude
670.807 km
Speed
7.535 km/s
True Right ascension
12h 25m 07s
True Declination
0° 00' 00"
Sunlit
Object was in full shadow at epoch
Visualization orbit readout
Latitude
Unknown
Longitude
Unknown
Altitude
Unknown
Speed
Unknown
Apparent Right ascension
Unknown
Apparent Declination
Unknown
Sunlit
N/A
Visualization observer readout
Local Sidereal Time
05:31:09
Azimuth
Unknown
Elevation
Unknown
Doppler factor
Unknown
Orbital elements
Apogee altitude
753.212 km
Perigee altitude
627.48 km
Semi-major axis
7,068.483 km
Eccentricity
0.00889
Inclination
98.6175°
RAAN
186.2811°
Arg. of periapsis
66.7619°
True anomaly
293.35825°
Mean anomaly
294.2914°
Eccentric anomaly
293.82525°
Mean motion
3.65219 °/min
Orbital period
98.57 mins
BSTAR
0.00083693
Loading maneuver chart data...
Computing Atmospheric mass density...
Loading historical data...
Loading historical data...
Loading historical data...
Loading historical data...
Loading historical data...
Loading historical data...
Loading historical data...

Documentation

Showing up to 5 results
|